This demonstration page uses our WeatherBlox Daily Observations layout. Learn more.

Hourly Observations for November 4, 2019

Temp ( °F °C ) Dew Point ( °F °C ) Humidity (%) Winds ( mph kmh ) Pressure ( in mb ) Visibility ( mi km ) Precip ( " mm )
12:15 am 00:15 Clear 32 0 32 0 100 100 Calm 30.33 1027 10 16.09344 0 0
12:35 am 00:35 Clear 32 0 32 0 100 100 Calm 30.33 1027 10 16.09344 0 0
12:55 am 00:55 Clear 32 0 32 0 100 100 Calm 30.33 1027 10 16.09344 0 0
1:15 am 01:15 Clear 32 0 32 0 100 100 Calm 30.33 1027 10 16.09344 0 0
1:35 am 01:35 Clear 32 0 32 0 100 100 Calm 30.33 1027 10 16.09344 0 0
1:55 am 01:55 Clear 32 0 32 0 100 100 N 3 6 30.33 1027 10 16.09344 0 0
2:15 am 02:15 Clear 32 0 32 0 100 100 Calm 30.33 1027 10 16.09344 0 0
2:35 am 02:35 Clear 32 0 30 -1 93 93 NW 3 6 30.33 1027 10 16.09344 0 0
2:55 am 02:55 Clear 30 -1 30 -1 100 100 Calm 30.33 1027 10 16.09344 0 0
3:15 am 03:15 Clear 32 0 32 0 100 100 Calm 30.33 1027 10 16.09344 0 0
3:35 am 03:35 Clear 32 0 32 0 100 100 Calm 30.33 1027 10 16.09344 0 0
3:55 am 03:55 Clear 32 0 32 0 100 100 Calm 30.33 1027 10 16.09344 0 0
4:15 am 04:15 Clear 32 0 32 0 100 100 Calm 30.33 1027 10 16.09344 0 0
4:35 am 04:35 Clear 32 0 32 0 100 100 Calm 30.33 1027 10 16.09344 0 0
4:55 am 04:55 Clear 32 0 32 0 100 100 Calm 30.33 1027 10 16.09344 0 0
5:15 am 05:15 Clear 32 0 32 0 100 100 Calm 30.36 1028 10 16.09344 0 0
5:35 am 05:35 Clear 32 0 32 0 100 100 Calm 30.36 1028 10 16.09344 0 0
5:55 am 05:55 Clear 32 0 32 0 100 100 Calm 30.36 1028 10 16.09344 0 0
6:15 am 06:15 Clear 32 0 32 0 100 100 Calm 30.36 1028 10 16.09344 0 0
6:35 am 06:35 Clear 30 -1 30 -1 100 100 Calm 30.36 1028 10 16.09344 0 0
6:55 am 06:55 Sunny 32 0 32 0 100 100 Calm 30.36 1028 10 16.09344 0 0
7:15 am 07:15 Sunny 32 0 32 0 100 100 Calm 30.39 1029 10 16.09344 0 0
7:35 am 07:35 Sunny 32 0 32 0 100 100 Calm 30.39 1029 10 16.09344 0 0
7:55 am 07:55 Sunny 34 1 32 0 93 93 Calm 30.39 1029 10 16.09344 0 0
8:15 am 08:15 Sunny 36 2 34 1 93 93 Calm 30.39 1029 10 16.09344 0 0
8:35 am 08:35 Sunny 37 3 32 0 81 81 Calm 30.39 1029 10 16.09344 0 0
8:55 am 08:55 Sunny 41 5 34 1 76 76 Calm 30.39 1029 10 16.09344 0 0
9:15 am 09:15 Sunny 45 7 36 2 71 71 S 9 15 30.39 1029 10 16.09344 0 0
9:35 am 09:35 Sunny 46 8 36 2 66 66 S 8 13 30.39 1029 10 16.09344 0 0
10:15 am 10:15 Sunny 50 10 34 1 54 54 S 13 20 30.39 1029 10 16.09344 0 0
10:35 am 10:35 Sunny 52 11 32 0 47 47 S 14 22 30.39 1029 10 16.09344 0 0
10:55 am 10:55 Sunny 54 12 34 1 47 47 SSW 12 19 30.36 1028 10 16.09344 0 0
11:15 am 11:15 Sunny 55 13 34 1 44 44 SSW 13 20 30.33 1027 10 16.09344 0 0
11:35 am 11:35 Sunny 55 13 34 1 44 44 SSW 16 26 30.3 1026 10 16.09344 0 0
11:55 am 11:55 Sunny 55 13 34 1 44 44 SSW 12 19 30.3 1026 10 16.09344 0 0
12:15 pm 12:15 Sunny 59 15 32 0 36 36 S 14 22 30.3 1026 10 16.09344 0 0
12:35 pm 12:35 Sunny 59 15 32 0 36 36 SSW 13 20 30.27 1025 10 16.09344 0 0
12:55 pm 12:55 Sunny 59 15 32 0 36 36 S 16 26 30.27 1025 10 16.09344 0 0
1:15 pm 13:15 Sunny 59 15 32 0 36 36 S 13 20 30.27 1025 10 16.09344 0 0
1:35 pm 13:35 Sunny 59 15 32 0 36 36 S 15 24 30.27 1025 10 16.09344 0 0
1:55 pm 13:55 Sunny 59 15 32 0 36 36 SSW 14 22 30.24 1024 10 16.09344 0 0
2:15 pm 14:15 Sunny 61 16 32 0 34 34 S 15 24 30.24 1024 10 16.09344 0 0
2:35 pm 14:35 Sunny 61 16 32 0 34 34 SSW 15 24 30.24 1024 10 16.09344 0 0
2:55 pm 14:55 Sunny 59 15 32 0 36 36 undefined N/A 30.24 1024 10 16.09344 0 0
3:15 pm 15:15 Sunny 59 15 32 0 36 36 S 15 24 30.24 1024 10 16.09344 0 0
3:35 pm 15:35 Sunny 59 15 32 0 36 36 SSW 13 20 30.24 1024 10 16.09344 0 0
3:55 pm 15:55 Sunny 57 14 32 0 39 39 S 10 17 30.24 1024 10 16.09344 0 0
4:15 pm 16:15 Sunny 57 14 34 1 41 41 S 10 17 30.24 1024 10 16.09344 0 0
4:35 pm 16:35 Sunny 55 13 34 1 44 44 S 10 17 30.24 1024 10 16.09344 0 0
4:55 pm 16:55 Sunny 54 12 34 1 47 47 S 7 11 30.24 1024 10 16.09344 0 0
5:15 pm 17:15 Clear 54 12 34 1 47 47 S 9 15 30.24 1024 10 16.09344 0 0
5:35 pm 17:35 Clear 54 12 34 1 47 47 S 9 15 30.24 1024 10 16.09344 0 0
5:55 pm 17:55 Clear 52 11 34 1 50 50 S 7 11 30.27 1025 10 16.09344 0 0
6:35 pm 18:35 Clear 52 11 34 1 50 50 S 7 11 30.27 1025 10 16.09344 0 0
6:55 pm 18:55 Clear 52 11 36 2 54 54 S 6 9 30.27 1025 10 16.09344 0 0
7:15 pm 19:15 Clear 52 11 36 2 54 54 S 6 9 30.27 1025 10 16.09344 0 0
7:35 pm 19:35 Clear 50 10 36 2 58 58 S 8 13 30.27 1025 10 16.09344 0 0
7:55 pm 19:55 Clear 50 10 36 2 58 58 S 5 7 30.27 1025 10 16.09344 0 0
8:15 pm 20:15 Clear 46 8 37 3 71 71 S 5 7 30.27 1025 10 16.09344 0 0
8:35 pm 20:35 Clear 45 7 36 2 71 71 S 7 11 30.27 1025 10 16.09344 0 0
8:55 pm 20:55 Clear 46 8 37 3 71 71 S 7 11 30.27 1025 10 16.09344 0 0
9:15 pm 21:15 Clear 46 8 37 3 71 71 S 6 9 30.27 1025 10 16.09344 0 0
9:35 pm 21:35 Clear 48 9 36 2 62 62 S 7 11 30.27 1025 10 16.09344 0 0
10:15 pm 22:15 Clear 43 6 36 2 76 76 Calm 30.27 1025 10 16.09344 0 0
10:35 pm 22:35 Clear 45 7 36 2 71 71 S 3 6 30.27 1025 10 16.09344 0 0
10:55 pm 22:55 Clear 41 5 36 2 81 81 Calm 30.27 1025 10 16.09344 0 0
11:15 pm 23:15 Clear 41 5 36 2 81 81 Calm 30.27 1025 10 16.09344 0 0
11:35 pm 23:35 Clear 39 4 36 2 87 87 Calm 30.27 1025 10 16.09344 0 0
11:55 pm 23:55 Clear 39 4 36 2 87 87 Calm 30.27 1025 10 16.09344 0 0

Powered by AerisWeather